IRIDIUM 33 DEB, 39777

Orbit data source: Space-Track

IRIDIUM 33 DEB, 39777 is space debris in LEO originally from a launch on Sun, 14 Sep 1997 UTC launched from the Tyuratam Missile And Space Complex (TTMTR). The debris from Iridium 33, an American commercial communications satellite, has been tracked extensively since its accidental collision with the defunct Russian satellite Cosmos 2251 in 2009. This event, occurring at high speed in low Earth orbit (LEO), generated thousands of pieces of space debris, significantly increasing the risk of further collisions. The Iridium 33 debris cloud has impacted space traffic management and orbital debris mitigation strategies, making it a subject of ongoing study in space situational awareness.

Loading next visibility...
Identifier
39777, 1997-051AAJ
Orbit
LEO
Country
Flag of USUS
Related business
Manufacturer
Unknown
Mission
Spacecraft
Bus & Motor
Unknown
Mass
Unknown
Launch date (UTC)
1997-09-14 (29 years ago)
Launch vehicle
Unknown
Launch site
Tyuratam Missile And Space Complex (TTMTR)
Object type
Payload
Rocket body
Debris
Shape & HBR
Unknown shape, 0.050 m
Radar Cross Section
Small (<0.1 m²)

Expand to show TLE details & history
Last TLE update: 1 week ago

TLE from 1 week ago
0 IRIDIUM 33 DEB
1 39777U 97051AAJ 26258.65469824  .00004932  00000-0  95556-3 0  9993
2 39777  85.9582  39.8028 0054754 328.1290  31.6611 14.62150648642256
Epoch: 2026-09-15T15:42Z
TLE epoch observation values (Epoch: 2026-09-15T15:42:45.927Z)
Latitude
-0.00002°
Longitude
169.4939°
Altitude
656.451 km
Speed
7.547 km/s
True Right ascension
02h 39m 12s
True Declination
0° 00' 00"
Sunlit
Object was in full shadow at epoch
Visualization orbit readout
Latitude
Unknown
Longitude
Unknown
Altitude
Unknown
Speed
Unknown
Apparent Right ascension
Unknown
Apparent Declination
Unknown
Sunlit
N/A
Visualization observer readout
Local Sidereal Time
23:57:29
Azimuth
Unknown
Elevation
Unknown
Doppler factor
Unknown
Orbital elements
Apogee altitude
721.836 km
Perigee altitude
644.509 km
Semi-major axis
7,061.31 km
Eccentricity
0.00548
Inclination
85.9582°
RAAN
39.8028°
Arg. of periapsis
328.129°
True anomaly
31.99236°
Mean anomaly
31.6611°
Eccentric anomaly
31.82654°
Mean motion
3.65776 °/min
Orbital period
98.42 mins
BSTAR
0.00095556
Loading maneuver chart data...
Computing Atmospheric mass density...

Documentation

Showing up to 5 results
|